Theta_e
358 357 356 355 355 355 354 353 352 352 352 351 351 351 352 352 352 351 350 350 349 349 348 348 348 348 348 347 346 347 348 349 350 350 351 351 351 352 354 354 355 356 356 355 356 356 356 355 355 357 357 357 356 356 356 354 354 354 355 354 352 352 353 353 354 355 354 353 354 354 355 356 356 355 355 354 353 353 353 354 353 352 351 350 350
358 357 356 355 355 355 355 355 354 354 355 355 353 352 351 353 352 351 350 349 349 349 347 347 347 347 347 347 346 346 347 348 349 350 351 351 352 352 353 353 353 353 355 356 358 358 357 357 356 357 356 355 355 355 355 353 354 355 355 354 352 352 353 354 355 355 355 354 354 355 356 357 356 356 356 354 353 353 353 353 352 352 351 351 351
356 358 356 355 355 356 356 355 355 355 356 356 355 353 352 353 352 350 349 349 349 348 347 346 346 346 346 347 347 347 347 347 347 349 351 351 351 352 352 353 353 353 354 355 356 356 357 357 357 356 356 356 356 355 355 355 355 356 355 353 353 353 353 354 355 356 357 356 355 356 357 357 357 356 355 353 352 353 353 352 352 352 352 352 351
352 355 356 356 355 356 356 356 356 356 356 356 356 355 353 351 350 349 348 348 348 348 348 347 346 346 346 347 347 348 349 349 349 349 349 350 350 351 352 352 353 353 353 354 355 355 356 358 358 357 357 358 358 358 358 358 357 356 355 354 353 353 354 353 354 356 357 357 356 356 357 357 356 355 353 352 352 354 354 353 352 353 352 352 351
351 351 352 354 355 355 356 355 356 356 356 356 356 355 354 351 350 349 348 348 348 348 348 348 347 347 347 348 348 349 350 351 351 351 350 350 350 351 352 352 352 353 353 354 356 356 357 357 357 356 356 357 358 358 358 357 357 356 355 355 354 354 354 354 354 356 356 356 356 356 357 356 355 354 352 353 354 355 356 355 353 352 351 350 349
352 350 349 351 353 354 354 354 355 356 356 356 356 356 355 353 351 350 349 349 348 349 348 348 347 347 347 348 348 348 350 351 352 352 353 352 351 351 351 351 352 353 353 354 356 356 356 356 355 354 355 355 356 357 357 357 356 356 355 355 355 354 354 354 355 355 356 356 356 356 356 355 356 354 352 354 357 357 358 357 355 354 351 349 348
349 349 349 351 352 353 353 353 353 355 355 355 355 355 354 352 350 349 349 349 348 349 348 348 348 348 348 348 348 347 348 349 351 351 352 352 351 351 351 351 351 352 353 354 355 355 355 355 354 353 353 354 355 356 356 356 356 357 356 355 355 355 354 355 355 355 355 355 355 355 355 355 356 354 353 355 358 359 359 359 358 356 353 350 348
350 350 350 351 351 351 351 351 351 352 353 353 353 353 353 351 350 349 349 349 349 348 348 348 349 349 349 349 348 348 347 348 349 349 349 350 349 350 351 351 351 352 353 355 355 355 356 356 355 354 353 354 354 355 354 353 354 356 355 354 354 355 355 355 356 355 355 355 355 355 356 356 355 355 355 355 357 358 358 359 359 357 355 353 350
354 354 353 351 351 352 351 351 352 352 351 351 351 351 351 350 350 350 349 349 349 348 348 349 349 349 349 349 349 349 349 349 349 349 349 349 347 348 349 350 352 353 354 354 355 355 355 355 354 354 355 355 354 354 354 354 355 355 354 353 355 355 356 356 356 356 356 356 356 356 357 357 356 356 355 355 356 355 357 358 358 357 356 354 351
352 354 354 353 353 355 354 354 355 354 353 354 353 353 351 350 350 349 349 350 349 349 348 349 350 349 350 349 349 349 349 349 350 349 348 349 348 348 350 351 353 354 354 354 354 354 353 353 353 352 354 354 354 354 354 355 355 354 352 353 354 354 355 355 355 355 355 355 355 356 357 357 357 357 356 355 355 355 355 357 357 357 357 355 352
348 349 351 348 349 354 355 355 355 355 355 355 355 354 353 353 353 352 352 351 350 349 350 351 351 350 350 349 348 349 349 349 349 349 349 349 349 350 351 352 353 354 354 354 354 354 353 353 353 353 353 354 354 353 352 353 356 354 352 352 353 352 353 354 354 354 354 354 355 356 357 358 358 358 357 356 355 355 356 356 356 357 356 353 352
347 349 349 345 346 352 354 354 354 354 353 353 352 352 353 353 353 354 354 353 352 352 353 354 354 353 353 351 350 349 349 349 349 349 350 349 351 352 352 351 352 354 354 354 354 354 354 354 354 354 354 355 355 354 352 352 354 354 352 352 352 351 351 352 352 353 353 354 355 356 358 358 358 358 357 356 355 355 356 356 356 357 356 353 352
346 347 347 345 346 348 351 352 352 352 352 351 350 351 351 352 352 352 353 353 353 354 354 355 355 355 355 354 353 352 351 351 351 351 351 351 351 352 352 352 353 354 354 354 354 354 354 353 354 355 357 357 357 356 354 353 354 354 354 355 354 353 352 351 352 353 354 355 356 357 356 356 357 356 356 356 356 356 357 356 355 355 355 354 354
345 345 345 345 344 344 347 350 350 349 350 350 350 351 351 352 351 351 352 352 352 353 354 354 354 355 355 354 354 353 352 352 352 351 351 351 350 351 351 352 353 353 353 353 354 355 354 353 353 354 355 356 357 357 355 355 355 356 357 358 358 356 355 355 355 355 356 357 357 357 357 357 357 357 357 357 356 357 357 356 356 356 356 355 355
343 343 344 344 345 344 346 348 347 347 348 348 348 350 350 350 350 350 350 350 351 352 353 353 354 354 354 353 352 353 353 352 352 351 350 350 349 350 350 351 352 352 353 353 354 354 354 354 353 353 354 356 356 356 355 356 356 357 358 358 359 358 357 357 357 356 356 356 356 357 357 356 356 356 356 354 354 355 355 354 355 355 354 355 355
341 342 342 342 343 343 344 344 343 344 345 346 346 347 347 347 347 347 348 347 348 349 350 351 352 353 353 351 351 352 352 351 351 351 351 351 350 350 350 351 352 353 353 354 354 354 354 354 353 353 354 356 355 355 355 355 356 356 356 356 356 356 356 355 355 354 354 354 355 355 354 354 354 354 354 353 352 352 351 351 351 352 353 354 354
339 340 341 341 342 342 342 342 343 343 344 345 344 345 345 344 343 343 344 344 344 344 344 345 346 348 349 348 348 348 347 346 348 349 350 351 350 350 350 350 351 353 354 351 351 353 354 354 353 353 353 355 354 354 354 353 353 354 353 354 354 353 352 352 352 352 352 352 353 353 353 353 353 353 353 352 351 351 350 350 350 351 352 352 352
337 338 340 340 341 341 342 343 343 344 344 344 343 342 341 341 340 341 341 341 340 340 341 341 342 343 342 341 341 342 341 341 342 344 346 348 348 348 350 352 352 352 351 346 345 348 351 351 352 352 352 352 351 350 349 349 349 348 347 346 345 343 343 344 345 345 345 346 348 350 351 351 352 352 352 351 350 350 350 349 350 351 351 351 350
336 337 338 339 339 340 340 341 342 343 344 343 342 341 340 339 338 339 338 338 338 337 337 338 337 337 336 336 335 336 336 336 337 338 340 342 344 345 347 349 349 347 346 344 344 345 345 345 346 346 345 344 343 344 345 345 343 340 338 337 335 335 336 336 337 337 337 338 339 340 342 344 345 346 347 347 348 348 348 348 349 349 350 350 349
336 337 337 337 337 338 338 339 340 341 342 341 340 340 340 338 338 337 336 335 334 334 334 334 333 332 332 332 332 331 332 332 333 335 336 337 339 340 341 342 341 341 342 342 341 339 337 335 335 336 336 336 336 338 340 339 338 336 334 335 335 335 335 335 335 336 336 337 337 337 338 338 339 339 340 340 341 344 346 347 348 349 350 349 348
336 336 337 337 336 337 337 336 338 338 339 339 339 338 338 337 336 335 333 332 332 330 329 329 328 326 326 327 327 327 327 327 329 330 332 334 335 335 336 337 336 336 336 334 333 333 333 332 331 332 333 334 334 336 336 336 335 335 335 335 335 335 335 336 336 337 337 338 338 338 339 340 340 340 340 339 340 343 345 346 347 348 348 347 345
334 332 332 333 333 334 335 335 336 336 336 336 335 335 334 333 332 331 329 328 326 323 322 321 320 319 319 319 319 319 319 320 321 321 322 326 328 330 332 333 334 335 332 328 328 331 331 330 329 331 334 337 337 337 337 335 335 334 334 334 334 334 335 336 337 337 337 338 339 340 340 341 341 342 343 343 344 344 343 343 342 342 342 341 340
330 329 328 327 326 327 330 333 334 334 334 334 334 333 332 331 330 328 326 324 323 321 321 320 320 320 319 319 318 316 315 315 315 316 316 318 320 321 323 325 327 328 326 323 323 325 326 324 325 329 336 338 338 337 336 334 333 333 332 333 333 334 334 335 335 336 337 338 339 339 339 339 340 340 340 339 339 339 337 336 335 334 334 333 332
324 327 328 327 324 321 321 327 331 333 334 333 333 332 332 330 329 328 326 325 325 325 326 325 324 324 323 322 321 320 319 317 315 313 314 315 316 316 317 319 320 321 320 319 318 320 324 325 326 331 336 338 337 335 333 332 332 332 332 332 332 333 333 334 334 335 336 335 335 333 332 332 333 333 333 332 332 331 330 329 328 326 326 325 324
319 320 321 321 320 316 314 317 323 328 331 332 332 331 329 328 327 326 325 325 326 327 327 326 326 324 323 322 322 322 322 322 321 319 318 320 322 322 321 321 320 319 318 317 317 322 329 332 332 334 337 337 335 333 331 331 331 331 331 331 331 331 332 332 332 332 332 331 330 329 328 327 327 327 327 327 327 327 325 324 323 323 322 322 322
318 316 316 318 318 317 315 313 314 318 323 326 328 328 327 326 324 322 321 320 322 324 324 323 322 321 322 323 322 322 322 323 324 325 326 328 329 328 327 326 327 326 325 324 325 330 336 336 335 335 334 332 331 331 330 330 330 330 330 330 330 330 330 330 330 329 329 329 328 328 328 327 327 326 326 325 324 324 323 323 323 323 323 322 322
320 318 319 321 322 322 320 316 313 313 314 316 318 319 319 319 318 316 315 314 315 316 316 316 316 318 321 322 322 322 322 323 325 327 328 330 331 331 331 332 333 333 334 334 335 336 336 335 333 332 330 329 329 329 329 329 329 329 329 329 329 329 328 328 328 327 326 325 325 326 326 326 326 326 326 325 324 324 323 323 323 322 322 322 322
323 322 321 322 324 324 323 321 319 316 315 315 315 314 314 314 313 313 313 314 314 314 313 313 313 315 319 321 322 323 324 324 325 327 328 329 330 331 332 333 333 333 334 334 335 335 333 332 331 330 329 329 328 327 327 328 327 327 327 327 327 327 326 326 325 324 323 323 323 324 325 324 324 324 325 324 324 323 322 321 320 319 320 320 320
326 325 324 324 324 324 324 324 323 321 319 318 317 316 315 314 314 315 314 314 315 315 314 314 313 314 317 320 322 324 324 324 325 326 327 328 329 329 330 330 331 332 331 332 332 332 331 331 330 330 329 329 328 327 327 326 325 325 325 325 325 325 324 324 324 323 323 323 323 323 323 322 322 322 323 323 323 322 321 319 319 318 318 318 318
326 326 326 325 325 326 326 325 325 324 323 321 319 318 317 316 316 316 316 316 316 316 314 313 312 313 315 319 323 324 325 325 324 325 326 327 327 326 326 326 327 328 328 329 330 329 328 328 327 327 327 327 327 326 326 325 324 323 323 323 323 323 322 323 323 323 323 323 323 322 322 321 320 320 320 320 321 320 319 319 318 318 317 317 317
324 325 325 325 326 327 326 326 326 326 325 324 322 320 319 318 317 318 318 317 317 317 315 313 311 311 314 319 323 325 324 323 324 325 326 326 325 324 323 323 323 324 324 325 325 325 325 324 324 324 325 324 324 324 323 323 322 321 320 321 321 321 322 322 322 322 322 322 322 322 321 319 317 317 317 317 317 317 316 316 316 315 315 315 316
323 324 325 324 323 323 323 324 324 324 324 325 325 324 322 320 319 319 319 319 319 318 317 313 311 311 315 320 324 323 322 323 324 325 325 325 324 323 322 322 321 321 322 322 322 321 322 322 321 321 321 321 321 321 320 320 319 319 320 319 319 319 319 319 320 321 320 320 320 320 319 318 317 317 316 316 316 316 315 315 315 314 313 313 314
324 324 325 325 323 319 318 319 321 322 322 321 321 322 324 324 323 321 320 320 320 320 318 315 312 313 317 322 323 322 322 324 326 326 325 324 323 322 322 321 321 321 321 321 319 319 319 320 319 319 319 318 318 319 318 318 317 318 318 317 317 317 317 317 318 319 318 318 318 317 317 317 317 317 317 316 316 316 315 315 315 314 312 312 312
326 325 325 325 323 320 317 316 319 322 323 322 320 321 323 325 326 325 323 322 321 321 319 317 315 315 318 321 322 322 321 323 325 326 326 325 323 322 321 320 320 320 320 319 318 317 317 318 317 318 318 318 318 318 318 317 316 316 316 316 316 316 316 316 317 317 316 316 316 315 315 315 315 315 314 314 314 314 314 313 313 312 311 310 311
325 327 328 326 323 321 317 314 317 321 323 323 322 322 322 323 324 325 325 325 324 322 320 319 318 318 319 321 321 321 322 322 322 324 325 324 322 321 320 320 319 319 319 318 318 317 317 316 316 316 315 316 316 316 316 316 315 315 315 314 314 315 314 314 314 314 314 314 314 313 313 313 313 313 312 312 311 311 311 311 311 310 309 310 311
321 326 328 325 321 320 317 315 318 321 322 322 322 322 322 322 322 323 324 326 326 323 321 320 319 319 320 321 321 321 322 322 322 322 322 322 321 320 320 320 319 319 318 318 318 317 317 316 315 315 314 314 314 314 313 313 313 313 313 312 312 311 311 310 310 310 311 311 311 311 311 311 311 311 311 310 309 308 309 309 309 308 308 309 310
321 325 326 322 319 319 317 317 319 321 321 320 320 321 321 321 320 321 322 324 327 326 323 321 320 320 320 320 320 320 321 321 321 321 321 321 320 319 319 319 319 318 318 318 317 317 316 316 315 315 314 313 313 313 312 312 311 311 310 309 309 309 308 308 308 308 308 308 308 308 308 308 308 308 309 308 307 307 307 307 307 306 307 307 308
322 323 322 320 319 318 317 318 319 320 320 319 319 320 320 320 320 320 321 322 325 327 326 324 321 320 320 320 321 321 321 321 321 320 320 319 319 319 318 318 318 318 317 317 317 316 316 315 315 314 314 313 313 312 312 311 311 310 310 309 308 308 308 307 307 307 307 307 307 307 307 307 306 306 307 307 306 306 307 306 306 306 306 307 307
321 322 321 321 320 318 317 318 319 318 318 319 319 320 321 321 320 320 321 320 321 324 326 325 323 322 322 322 322 321 322 323 321 319 319 319 318 318 317 317 316 317 316 316 316 315 314 313 313 313 313 313 313 312 312 311 311 310 309 309 308 307 307 307 306 306 306 306 306 306 306 306 305 305 306 306 306 306 306 306 306 306 306 307 307
320 321 321 320 320 319 319 319 319 319 319 320 320 320 321 321 321 320 320 320 321 322 323 324 324 324 324 323 321 319 321 323 322 319 318 319 318 317 317 317 316 316 315 315 315 314 313 312 312 311 311 311 311 311 311 310 310 309 309 308 307 306 306 305 305 305 305 305 305 304 305 305 305 305 305 305 306 306 306 306 307 306 306 306 307
319 319 320 319 319 319 318 318 318 319 319 318 319 318 318 318 319 319 320 320 321 321 322 323 324 325 323 321 319 316 317 321 321 319 318 318 318 317 317 316 315 315 315 314 314 313 312 311 311 311 310 310 310 310 310 309 309 308 307 307 306 305 305 304 304 304 303 303 304 304 304 304 304 304 304 304 304 305 305 305 306 306 305 306 307
318 318 319 319 318 318 318 317 317 317 317 317 317 317 316 316 317 318 318 319 320 320 321 322 323 323 321 320 318 315 315 319 320 319 317 317 317 316 316 315 314 314 314 313 312 312 311 311 310 310 310 309 309 309 309 308 308 307 307 306 305 304 304 303 303 302 302 302 302 302 303 303 303 304 303 303 303 303 304 305 305 306 305 306 306
314 313 315 317 317 317 317 317 316 316 316 317 317 316 317 317 317 317 318 319 319 319 320 321 321 321 320 319 318 316 315 317 319 319 317 317 316 315 314 314 313 313 313 312 312 311 311 311 310 309 309 309 308 308 308 307 307 306 306 305 304 303 303 302 302 301 301 300 300 300 301 302 303 303 303 303 303 303 304 304 305 305 305 305 305
312 312 313 316 317 316 315 315 315 315 315 315 315 316 317 317 317 318 318 318 318 318 319 320 320 320 320 319 317 316 316 317 318 319 318 316 315 315 314 313 313 312 312 311 311 311 311 310 310 309 308 308 307 307 307 306 306 305 304 303 303 303 302 302 301 300 300 298 298 298 299 301 302 302 303 304 303 303 304 304 304 304 304 304 304
314 315 316 316 316 315 315 314 314 314 314 315 315 316 317 316 317 317 318 318 318 318 318 319 320 320 319 319 318 317 317 317 317 317 317 316 315 314 313 312 312 312 311 311 311 310 310 310 309 308 308 307 307 306 306 305 304 304 303 302 302 301 301 300 299 298 297 297 296 297 298 300 302 302 303 303 303 303 303 304 303 304 304 304 303
316 316 315 315 315 315 315 314 314 315 315 315 315 316 316 317 317 317 317 318 318 318 318 319 320 320 319 319 319 318 317 316 316 316 315 315 314 313 313 312 312 311 311 310 310 310 309 309 308 308 307 307 306 306 305 304 304 303 302 302 301 300 299 298 297 296 296 296 296 296 298 300 301 302 302 302 302 302 303 303 303 303 303 303 303
316 315 314 315 314 314 314 314 314 315 315 315 315 316 316 316 317 317 318 318 318 318 318 318 319 319 319 318 318 317 316 315 315 315 314 314 313 313 312 311 311 310 310 309 309 309 308 308 307 307 306 306 305 305 304 304 303 302 302 301 300 299 298 297 296 295 295 296 296 297 299 300 301 301 301 301 301 302 302 302 303 303 303 302 303
314 313 313 313 313 314 314 314 314 314 315 314 315 315 315 316 316 316 317 317 318 317 317 317 317 317 316 316 316 317 316 315 314 313 313 313 312 312 311 311 310 309 309 308 308 307 307 306 306 306 305 305 304 304 303 303 302 301 301 300 299 299 297 296 295 295 295 296 297 299 300 301 301 301 301 300 301 302 302 302 302 302 302 302 302
313 312 313 313 312 313 314 313 313 314 314 314 314 314 314 314 315 315 315 316 316 316 316 316 315 315 315 315 315 315 315 315 314 313 312 312 311 310 310 309 309 308 308 307 307 306 306 305 305 305 304 304 304 303 303 302 301 300 300 299 298 297 296 295 295 295 295 296 298 300 301 300 300 300 301 300 301 301 301 302 301 301 301 301 302
313 312 312 313 312 313 313 312 312 313 313 313 313 313 313 313 313 313 314 314 314 315 315 314 314 314 314 314 314 313 313 313 313 312 310 310 310 309 309 308 307 307 306 306 306 305 305 305 304 304 304 303 303 302 302 301 300 300 299 298 297 296 296 295 295 295 295 297 299 300 300 300 300 300 301 301 301 301 301 301 301 301 301 301 302
313 312 312 312 312 312 312 312 312 312 312 312 312 312 312 312 312 312 312 312 313 313 313 313 312 312 312 313 312 312 312 311 311 310 309 309 308 308 307 307 306 306 306 305 305 304 304 304 304 303 303 302 302 301 301 300 300 299 298 297 297 296 296 295 295 295 295 297 299 301 300 300 300 300 301 301 301 301 301 301 301 301 301 301 301
Wind_Speed
31 31 32 31 28 26 27 27 26 25 25 23 24 24 23 23 23 22 21 22 23 24 24 23 23 24 25 25 23 21 21 22 22 21 21 19 17 17 18 18 19 19 18 17 16 17 18 17 16 15 14 14 13 11 10 12 13 13 13 12 9 8 9 12 10 9 12 12 11 10 9 9 10 9 10 11 11 11 11 11 12 11 10 9 8
31 30 30 31 30 27 26 26 26 25 25 24 24 25 25 25 25 24 24 25 25 25 25 24 23 23 24 26 26 24 22 22 22 21 22 21 20 20 20 19 19 18 18 19 18 17 18 19 18 17 16 16 15 13 12 12 14 15 13 11 10 9 8 11 11 10 11 12 11 10 9 10 10 11 12 13 13 12 10 10 10 9 8 8 7
24 28 28 29 29 28 26 26 27 26 25 25 25 25 26 27 26 25 23 23 25 26 26 24 23 22 22 24 26 26 25 24 23 23 22 23 23 23 22 21 21 19 19 20 19 17 17 19 19 18 16 15 14 12 12 13 12 12 11 10 10 9 8 9 11 11 12 12 11 10 10 10 11 12 13 13 12 10 9 9 9 8 8 8 8
18 22 26 28 27 26 26 26 28 29 28 27 26 24 23 24 25 24 21 20 21 22 22 23 21 20 21 23 25 26 26 25 24 24 24 25 25 26 25 23 23 22 21 20 18 18 18 19 19 17 15 15 15 13 13 12 11 10 10 9 9 9 9 9 11 12 12 11 11 11 11 11 12 12 12 12 11 9 9 8 8 8 8 8 8
18 18 21 25 26 24 23 24 26 30 31 30 28 25 22 21 22 22 21 19 20 20 19 20 20 19 20 22 25 26 26 25 25 25 25 27 28 29 28 26 25 25 23 21 19 19 19 21 22 19 16 15 16 16 15 14 13 11 10 10 10 10 11 11 11 11 12 12 12 11 11 12 13 13 11 12 12 11 9 8 8 8 9 9 9
20 17 19 22 24 22 20 21 24 28 30 30 29 27 24 21 19 19 20 20 21 21 20 20 21 19 19 20 22 23 23 24 25 24 23 23 26 30 31 29 27 26 24 23 23 22 22 23 23 20 17 16 17 18 17 15 14 13 12 11 11 11 11 11 10 11 12 12 12 12 12 13 14 14 12 11 12 12 11 10 9 8 9 10 10
20 20 17 19 20 20 18 18 21 24 26 26 26 26 24 22 19 17 17 18 18 20 21 22 23 22 21 21 22 23 22 23 24 24 23 20 21 26 30 31 29 25 24 25 26 25 24 23 22 20 18 17 17 17 17 16 14 14 13 12 12 12 12 11 11 11 12 13 13 13 14 14 14 14 13 12 13 13 13 12 12 10 11 12 12
15 16 15 15 14 14 13 13 14 17 18 19 19 20 21 21 19 16 15 16 17 18 18 19 20 22 22 21 23 25 26 26 26 28 28 26 21 22 27 30 30 26 25 26 25 25 25 24 23 20 18 16 15 16 16 17 16 15 14 13 12 13 12 12 11 11 12 13 13 14 14 15 15 15 14 14 14 14 13 13 13 13 13 14 13
12 13 12 11 8 4 4 6 7 9 9 10 11 13 16 17 16 15 14 15 17 18 17 15 15 16 18 20 22 25 26 28 29 29 30 29 25 21 24 27 27 25 23 22 22 21 21 21 20 18 16 16 17 17 15 16 17 16 14 13 12 13 13 13 13 12 12 13 14 15 15 16 17 16 15 15 14 14 14 13 14 15 14 15 14
9 11 12 11 8 6 5 3 4 5 5 5 5 6 9 11 12 13 14 14 16 17 17 15 13 13 15 18 22 24 25 26 27 27 27 26 24 22 23 26 25 22 21 20 19 19 18 17 17 17 17 18 19 18 14 14 16 16 13 12 13 13 14 15 15 15 15 15 16 16 14 16 19 17 16 16 15 15 15 14 16 16 15 14 14
7 8 9 9 10 10 9 5 3 4 4 3 3 3 4 5 7 8 10 10 11 13 13 12 11 11 12 15 18 20 21 22 22 24 25 25 23 21 24 29 29 24 22 22 21 20 19 16 15 17 18 19 20 18 15 14 15 15 13 13 13 14 15 16 17 17 17 17 18 17 15 18 20 19 18 18 17 16 16 17 17 17 15 12 11
7 8 7 7 8 8 8 6 4 3 1 1 3 3 3 3 4 5 6 6 8 8 8 8 8 8 9 12 14 14 14 16 17 20 22 24 25 24 26 30 30 26 23 23 22 21 19 16 15 17 18 18 18 18 17 16 15 14 13 13 14 15 16 17 17 18 17 17 18 18 18 19 21 20 20 19 18 18 18 18 18 18 17 15 13
6 6 5 6 7 6 5 5 6 5 3 2 2 2 2 2 3 4 4 5 7 7 8 7 7 7 8 9 8 9 10 13 15 18 20 22 24 25 26 28 27 25 23 22 21 20 19 16 16 16 16 15 15 15 15 15 14 13 13 13 15 16 16 16 16 17 18 18 19 21 21 20 21 21 20 19 18 18 17 18 19 19 19 18 18
8 6 6 7 9 8 7 8 8 6 4 4 4 3 1 1 2 2 3 4 4 5 7 7 7 9 10 8 8 8 9 10 12 15 18 20 21 22 23 24 24 23 22 21 19 19 19 17 16 17 15 13 12 13 13 14 14 14 14 14 15 15 14 14 14 14 15 17 19 21 22 21 21 22 20 19 18 17 17 18 19 19 20 21 22
11 9 9 9 9 9 9 9 6 4 4 5 6 5 4 1 1 1 2 3 3 3 4 5 6 8 7 7 8 9 10 10 10 11 14 16 18 19 20 21 22 22 21 20 18 17 16 15 13 14 13 12 11 12 13 13 13 12 12 12 13 13 13 13 13 13 14 16 17 19 20 20 22 23 22 20 19 18 19 20 21 22 22 23 24
14 12 12 12 12 12 11 10 8 6 6 7 8 8 7 5 4 4 4 4 4 3 3 3 5 6 5 4 4 7 9 10 11 12 13 14 16 17 18 19 21 22 21 18 15 14 13 13 11 10 11 12 11 11 11 10 10 10 10 11 12 13 14 14 14 15 15 16 17 18 19 19 19 20 20 19 19 19 20 21 22 22 21 21 22
15 14 14 14 15 15 15 15 14 12 12 13 14 13 11 10 9 8 7 7 7 6 6 5 4 4 3 1 1 3 5 7 10 12 13 14 15 16 16 17 19 20 18 13 11 11 11 11 12 11 10 10 10 9 9 8 8 8 9 11 13 14 15 16 16 15 15 15 17 18 18 18 17 18 18 17 17 17 17 18 19 18 17 16 14
16 16 15 16 17 18 18 19 18 16 16 16 17 16 15 14 13 12 13 13 13 12 11 11 11 9 8 7 5 2 3 5 7 10 12 15 15 14 13 14 16 18 16 12 10 9 7 6 8 8 7 6 6 4 4 4 4 6 7 9 11 13 14 15 16 17 17 17 18 19 19 19 19 19 19 19 18 18 17 17 18 17 17 15 12
17 17 16 17 18 19 20 20 20 19 18 18 19 18 16 15 15 15 16 17 17 17 16 16 16 14 12 12 9 7 7 7 7 6 7 8 10 10 9 9 9 10 11 12 11 8 9 9 6 5 4 2 1 1 1 1 3 5 6 8 10 11 12 14 16 18 19 19 19 20 21 21 22 23 24 24 23 22 20 20 19 19 20 19 16
16 17 17 18 19 19 20 21 21 20 20 19 19 17 15 15 15 15 16 17 18 19 19 19 19 18 16 14 14 13 12 11 11 9 8 7 4 3 5 4 3 4 2 11 17 14 10 10 9 7 7 6 5 4 3 3 4 5 6 7 8 11 13 15 15 16 18 19 18 18 19 20 20 21 22 23 23 22 21 21 20 20 21 20 17
17 17 17 17 18 18 19 20 21 21 20 19 18 16 15 15 15 15 17 17 18 19 20 20 20 20 18 17 16 16 14 14 14 12 10 10 9 8 9 10 9 9 7 6 17 18 13 10 9 9 9 9 8 8 7 6 6 6 6 7 9 11 13 14 14 14 15 16 17 17 17 17 16 15 15 15 17 18 18 18 18 18 18 16 15
20 19 19 18 18 18 18 19 20 21 20 20 20 18 17 17 17 17 18 19 20 21 21 21 21 20 19 18 17 16 15 14 14 14 13 13 13 12 13 12 10 9 8 9 13 17 14 10 9 10 11 11 10 9 8 8 9 9 9 9 10 11 11 12 12 13 13 15 16 17 17 16 16 16 13 11 11 12 12 11 11 11 12 12 12
19 19 20 20 21 21 20 19 19 20 20 21 21 20 19 18 19 19 20 20 21 21 20 20 20 20 19 18 16 15 14 14 13 14 15 15 16 15 15 14 12 10 10 11 13 14 14 11 10 11 12 12 11 10 9 10 11 11 10 9 9 9 9 10 11 11 11 12 13 13 13 12 12 10 6 2 2 3 3 2 1 1 2 4 4
18 17 17 18 20 22 22 21 19 19 19 19 20 21 20 20 20 19 19 20 20 19 18 18 18 18 18 18 16 15 13 13 12 12 13 14 14 14 13 12 10 10 10 11 12 13 13 11 9 9 10 11 11 10 11 12 12 12 11 11 11 11 11 11 10 10 10 10 11 11 12 11 9 8 8 9 9 8 8 9 10 10 10 10 10
21 21 20 20 21 22 22 22 20 19 17 17 18 19 19 19 20 18 18 18 17 16 16 15 16 16 16 16 16 15 14 13 13 12 12 13 12 12 11 10 9 9 9 10 11 12 12 10 9 10 11 11 11 11 13 14 14 13 13 13 15 17 16 15 14 14 14 14 15 15 15 15 15 14 14 13 13 12 13 14 15 15 15 15 15
22 23 23 24 24 23 23 22 21 20 19 17 17 17 17 17 18 18 17 18 17 16 15 15 15 15 15 14 14 14 15 15 15 14 14 14 14 13 12 12 12 11 11 10 11 12 13 14 14 14 14 14 14 15 15 15 15 15 15 15 17 19 18 17 17 17 17 17 17 17 16 16 16 15 14 14 14 14 15 16 17 17 17 17 18
19 21 22 22 21 21 22 21 20 21 21 20 19 18 17 17 18 19 18 18 18 17 16 15 15 15 15 14 14 15 16 17 17 17 17 17 18 17 18 18 17 17 17 17 17 18 19 19 18 18 17 17 16 16 16 16 16 17 17 17 18 19 18 18 18 19 19 19 19 19 18 18 18 17 17 16 16 16 15 16 17 17 16 16 17
16 16 17 17 18 18 18 18 18 18 19 19 20 20 19 18 18 18 17 16 16 15 15 15 14 14 14 14 15 16 18 19 19 19 19 19 19 20 21 21 20 21 22 22 22 21 20 19 19 18 17 17 17 17 17 17 17 18 18 18 18 19 18 19 20 21 21 20 20 20 19 19 20 19 18 17 16 15 15 16 17 16 15 16 17
18 15 13 12 13 14 14 14 15 15 15 16 16 17 17 17 17 16 15 14 14 14 14 13 13 13 13 14 15 16 17 18 18 18 18 19 19 18 19 19 18 18 19 18 18 18 18 17 17 17 16 17 17 17 17 17 18 19 19 19 19 19 19 20 21 21 21 21 20 20 19 20 20 19 18 18 17 15 14 15 16 15 15 17 18
20 18 15 12 11 10 10 10 10 10 10 11 12 12 13 14 14 13 13 13 13 13 12 12 11 12 12 13 14 15 15 15 15 15 16 18 18 18 17 16 15 14 13 12 13 15 17 18 17 17 16 16 16 16 15 15 16 17 18 19 19 19 20 20 20 19 19 19 20 19 19 19 20 20 19 19 18 16 15 15 15 15 15 15 16
17 17 17 17 15 13 12 10 8 7 6 6 6 7 8 9 10 11 11 11 11 11 11 10 10 10 11 12 13 14 14 13 12 13 16 17 17 18 17 16 15 14 11 11 15 17 18 18 18 17 16 16 15 15 15 15 15 16 17 19 19 19 19 18 18 17 17 18 18 18 19 19 19 19 19 19 18 17 16 16 16 16 15 14 13
13 14 15 15 14 14 13 12 11 9 7 5 3 3 3 4 5 6 7 8 9 10 10 9 9 10 12 13 13 13 13 12 11 14 16 17 17 17 18 17 18 17 15 17 21 21 19 19 18 17 17 17 16 16 16 16 16 16 16 18 18 18 18 18 17 16 17 18 18 18 17 17 17 17 16 16 16 16 16 17 17 17 15 14 14
10 11 11 11 11 11 11 11 10 9 8 6 4 3 2 1 1 3 3 5 7 8 9 9 9 11 13 14 14 14 14 14 14 15 16 16 16 17 18 18 18 18 19 22 25 22 20 20 19 18 18 18 17 16 16 16 16 16 16 17 17 16 16 15 15 16 16 17 17 16 16 15 14 14 14 13 13 14 14 15 16 17 16 14 13
8 9 9 8 8 9 9 8 7 8 8 7 5 5 4 4 3 2 3 4 4 6 9 10 11 12 14 14 14 13 14 14 15 15 14 14 14 16 17 18 19 19 21 24 25 24 22 22 20 19 18 17 16 16 16 16 16 16 16 16 15 15 14 14 14 15 15 15 15 15 14 14 13 13 13 13 12 12 13 13 14 15 14 13 12
6 7 7 6 5 7 8 6 5 5 7 7 6 6 6 7 6 5 4 6 6 6 8 10 11 13 14 14 13 13 13 13 14 14 14 13 12 12 14 17 19 20 21 23 23 23 22 22 21 20 19 18 17 17 17 16 16 16 15 15 15 15 15 16 16 16 15 15 15 14 13 13 12 12 11 11 12 12 11 12 12 12 11 11 10
5 6 6 4 3 6 7 5 3 4 6 7 6 7 7 8 8 7 5 3 5 7 9 10 10 11 12 12 12 13 13 13 13 13 13 12 9 7 11 16 18 19 19 20 19 19 19 19 19 19 18 18 18 18 17 17 16 16 16 16 16 17 17 17 16 16 15 15 15 14 14 14 13 11 11 12 12 11 10 11 12 11 10 9 8
6 6 7 4 4 5 6 3 1 3 6 7 7 8 8 8 9 10 10 6 1 6 9 10 9 9 10 11 11 12 13 12 12 12 11 10 7 8 12 15 15 16 17 16 16 16 17 16 16 16 16 16 16 16 16 16 16 16 16 16 16 16 16 15 14 14 14 15 15 15 14 14 14 12 12 13 14 13 11 12 13 12 10 9 7
7 6 5 3 3 4 5 3 2 2 4 6 8 9 7 6 9 12 13 11 5 2 7 9 9 8 7 8 8 8 8 8 11 13 12 10 9 11 13 13 13 15 15 14 13 14 14 14 13 12 12 12 12 12 13 13 13 13 13 13 12 12 12 12 12 12 12 12 13 13 13 13 14 13 12 12 14 13 12 13 14 13 12 10 9
6 5 3 2 3 2 4 5 3 3 3 5 7 7 8 9 10 12 12 12 9 5 4 7 8 7 6 5 5 5 4 5 10 13 13 11 10 11 11 11 12 14 14 13 12 12 12 11 10 9 9 9 9 9 8 9 9 9 8 9 9 10 10 10 11 11 11 10 11 11 11 12 13 13 11 10 11 12 13 13 12 13 12 11 9
4 4 3 3 3 1 3 5 4 3 1 3 5 7 8 9 9 9 10 10 10 8 5 6 7 6 5 3 2 2 3 8 12 14 13 13 13 12 11 11 12 13 13 12 11 10 10 9 8 8 8 8 7 7 7 7 7 7 7 7 8 9 9 9 9 10 10 9 9 10 10 11 11 12 12 11 10 12 13 12 11 11 11 11 9
3 3 3 3 2 1 1 4 5 3 1 5 5 4 4 4 4 5 6 8 8 8 7 6 7 7 6 3 1 1 1 8 14 15 14 14 15 13 11 11 11 12 11 11 10 10 9 8 7 7 7 7 6 6 5 5 6 6 6 7 7 8 8 8 9 10 10 10 10 10 10 10 10 11 12 12 12 12 12 11 10 10 10 9 8
6 5 4 4 3 3 3 5 6 4 0 3 2 3 4 4 3 3 3 4 5 6 6 7 8 9 6 3 1 0 2 6 12 15 15 15 15 14 12 11 10 10 10 10 10 10 8 7 6 5 5 5 5 4 4 5 6 7 7 7 8 9 9 10 11 12 12 12 12 11 11 11 10 10 11 12 12 12 11 11 10 8 7 7 7
6 7 6 5 4 3 3 3 3 4 4 4 4 6 6 5 5 4 4 5 6 6 6 6 7 7 5 2 1 2 3 5 10 14 16 17 16 15 14 12 11 10 10 10 10 8 7 6 5 4 3 4 4 4 4 5 7 8 8 9 10 11 12 13 14 15 16 16 15 14 12 12 11 11 12 12 11 11 11 10 7 5 4 5 6
3 3 5 5 3 2 1 3 5 6 7 7 8 10 10 10 9 9 9 9 10 9 8 6 5 6 5 3 2 2 3 6 10 15 18 18 17 16 15 14 12 11 10 10 9 7 5 5 5 4 3 3 3 4 5 6 7 8 9 10 11 12 13 15 16 18 19 19 18 14 12 11 10 10 10 9 8 8 8 8 6 5 5 5 6
3 2 3 2 2 2 2 4 6 7 8 10 12 13 13 13 13 12 12 11 11 10 9 7 6 6 5 3 2 2 3 7 12 17 19 18 18 17 16 15 13 11 10 9 8 6 4 3 3 3 3 3 3 4 5 7 7 8 10 11 12 14 14 15 17 18 18 18 16 13 10 9 9 9 9 8 7 6 6 5 5 5 5 5 6
3 0 1 2 3 3 7 9 10 10 12 13 14 15 14 14 13 13 13 12 11 11 10 8 7 6 4 2 1 2 4 8 13 17 18 18 18 17 16 14 12 11 9 9 8 7 5 4 3 2 2 2 2 4 6 7 8 9 10 12 13 14 16 17 17 16 15 13 12 10 9 8 8 7 9 10 8 7 5 4 3 4 4 4 4
1 2 3 5 7 10 13 14 13 13 14 14 14 15 15 15 15 14 14 13 12 12 11 9 7 5 2 2 2 2 5 9 13 15 16 17 17 17 15 14 12 11 10 10 9 7 5 4 3 2 1 1 2 3 4 6 7 8 10 12 14 16 17 17 16 14 11 10 10 9 8 8 7 7 9 11 10 8 5 4 4 4 4 5 5
3 7 10 12 13 14 15 15 16 15 15 15 15 15 15 15 16 15 15 14 13 12 12 10 8 5 2 1 1 1 5 10 14 15 16 16 16 16 15 14 13 12 11 10 8 6 4 3 2 1 1 1 1 2 3 4 6 7 9 12 14 16 17 16 14 12 10 8 7 7 7 8 8 8 9 11 11 7 4 4 6 7 7 7 7
4 8 11 12 13 14 15 15 15 16 16 16 16 15 15 15 15 14 14 13 13 12 11 9 7 6 4 3 3 2 3 8 12 15 16 17 16 15 14 13 12 11 10 8 7 5 4 3 1 0 1 1 2 3 3 4 5 7 9 12 13 14 14 14 13 12 10 7 6 7 8 8 9 9 9 10 10 8 5 4 7 8 8 7 8
2 7 11 12 12 13 14 14 14 15 16 16 15 15 14 14 14 13 12 12 12 11 10 9 7 6 5 4 4 4 5 8 12 15 16 16 15 14 13 12 11 10 9 8 6 5 4 3 2 1 1 1 2 3 4 5 6 8 9 11 11 12 12 12 12 11 8 5 5 6 7 7 7 8 9 9 10 11 9 7 8 9 9 9 9
2 6 11 12 12 13 13 13 13 14 14 14 14 14 13 13 12 11 10 10 10 10 9 8 8 7 6 5 5 4 5 9 13 16 16 15 15 15 13 12 11 10 9 8 7 6 5 4 3 2 1 1 2 3 3 5 7 8 8 8 9 10 11 12 11 9 7 4 4 5 6 7 7 7 8 9 11 12 11 9 10 10 10 11 11
Wind_Direction
198 200 199 198 200 206 211 213 214 216 218 220 222 221 223 226 227 229 230 231 234 237 239 241 242 242 242 243 241 240 240 241 243 245 246 247 248 249 250 251 255 256 257 258 262 265 265 266 267 267 272 280 280 277 278 281 282 283 287 291 298 302 273 242 233 256 277 285 287 288 295 301 302 302 307 314 314 310 309 310 312 315 315 318 325
201 205 203 199 198 202 209 213 214 217 217 220 223 222 222 226 227 229 232 235 236 236 237 240 241 239 241 243 242 241 241 242 243 244 244 247 248 249 249 251 254 255 254 257 263 269 266 262 265 269 273 276 275 272 275 281 285 288 289 285 284 290 278 256 249 254 273 284 286 285 291 297 298 301 307 313 316 314 312 311 311 313 313 317 323
209 209 207 204 200 200 206 211 213 215 216 218 220 221 223 227 229 229 232 235 235 234 236 239 240 239 239 239 238 239 242 244 246 246 245 247 248 248 248 248 251 252 252 255 261 265 264 260 266 275 280 278 275 276 277 278 283 286 282 276 276 276 265 259 258 258 266 276 279 282 286 291 296 303 309 311 315 317 312 308 309 312 313 317 323
221 220 213 208 204 203 206 210 213 214 215 218 220 221 222 223 226 228 231 232 230 230 234 236 239 240 238 234 233 235 238 240 244 246 246 248 249 248 248 247 249 251 252 254 259 262 260 258 262 271 277 275 271 272 274 274 276 276 270 269 271 269 264 261 259 257 260 267 272 276 281 287 296 304 310 311 314 317 313 305 304 307 311 318 323
210 228 229 216 207 207 210 211 213 214 214 217 220 223 224 223 224 227 231 233 231 231 235 236 238 242 242 236 232 231 234 236 238 242 245 247 249 248 248 248 249 250 251 252 254 255 255 254 256 258 258 260 263 267 271 272 272 272 271 273 272 269 268 264 258 251 251 259 268 274 279 286 294 301 308 313 313 314 315 309 303 305 311 316 318
197 216 241 233 212 207 211 210 211 212 213 216 220 224 228 231 231 231 234 236 236 237 238 238 239 243 247 244 236 232 234 235 237 241 246 252 255 252 249 249 251 251 249 248 249 252 254 256 259 259 254 254 260 266 267 263 262 266 269 273 272 267 263 262 259 255 255 261 267 274 282 288 292 297 304 311 310 309 312 311 306 305 308 308 307
192 197 227 239 218 205 208 209 210 213 214 217 222 225 230 233 233 234 236 239 240 241 242 242 241 242 246 248 244 240 240 241 241 240 243 251 261 262 254 247 247 248 245 244 246 251 255 258 262 264 259 258 264 272 272 263 258 262 267 267 265 260 254 253 256 257 258 261 265 272 282 287 289 293 299 304 303 299 300 300 299 301 305 304 301
186 186 208 237 232 211 207 210 211 214 216 216 220 224 227 229 230 232 238 243 243 243 244 245 243 241 243 245 244 243 244 246 247 245 244 244 247 264 266 253 244 242 242 244 247 251 255 259 263 266 263 260 264 271 272 267 261 261 263 262 258 255 253 251 253 255 256 260 268 274 278 281 283 288 292 296 296 296 297 292 289 296 303 303 303
171 166 180 210 228 210 199 207 204 208 214 213 213 218 223 228 231 235 243 246 242 239 240 243 246 245 246 246 243 242 243 245 246 245 245 243 239 249 263 256 244 238 238 241 246 250 253 256 261 263 258 252 252 250 248 252 258 261 262 260 253 250 254 256 257 259 259 263 270 274 274 276 279 283 286 288 291 296 298 289 284 292 298 297 299
164 159 158 161 155 141 150 179 191 197 204 209 209 212 222 232 239 242 245 246 244 243 243 247 252 255 256 252 245 243 244 246 248 247 246 245 239 238 247 250 244 237 236 239 243 247 252 256 258 256 249 249 251 248 239 240 252 260 261 257 254 253 255 258 261 262 265 268 271 273 270 270 275 278 279 284 289 291 290 285 284 289 290 289 293
139 154 154 148 144 147 154 158 169 185 187 200 217 216 217 227 236 239 241 243 244 244 243 243 243 246 253 255 250 247 249 253 255 253 249 244 238 233 239 245 245 241 241 244 247 251 255 256 252 244 243 248 251 250 247 244 248 257 262 259 259 259 257 258 261 264 265 266 269 269 264 265 273 277 278 283 286 284 284 284 283 284 281 276 281
119 127 136 143 141 134 135 143 149 154 166 237 266 270 255 236 229 227 231 235 231 228 229 229 225 228 239 246 247 247 252 255 254 252 249 244 241 238 236 238 240 243 245 248 250 251 252 251 244 237 240 248 252 252 251 247 246 255 265 268 265 264 262 261 264 267 267 266 267 268 264 265 272 277 280 285 287 287 287 282 276 276 274 267 262
124 130 137 159 162 140 121 137 141 125 93 50 11 325 290 258 228 215 218 225 221 217 220 222 218 220 226 231 235 237 242 247 245 242 239 237 238 240 240 239 242 245 246 246 247 246 244 241 238 236 239 247 254 255 248 241 242 249 260 269 272 269 266 265 266 269 271 270 269 270 271 271 274 279 286 290 291 290 287 279 275 275 273 269 267
108 119 129 155 176 177 160 149 143 129 107 87 75 72 59 256 226 210 208 211 209 206 212 223 229 231 232 232 232 232 235 242 243 240 237 235 234 236 241 246 249 249 245 242 242 241 239 235 232 236 243 246 249 248 241 240 247 255 260 269 275 275 272 273 276 277 277 275 272 275 279 280 281 286 292 293 291 287 283 281 280 279 276 276 277
96 101 106 115 133 147 150 145 137 131 123 106 96 95 95 95 143 157 159 161 163 176 190 209 225 232 242 254 247 240 245 255 260 258 251 247 245 244 244 247 249 249 245 241 239 239 240 236 232 235 238 236 235 237 239 245 253 260 267 271 275 278 278 280 285 285 285 284 282 283 287 288 288 290 291 292 290 287 286 285 283 282 281 281 279
82 84 85 88 96 107 115 112 100 97 107 106 102 102 103 101 107 120 128 133 141 155 166 185 207 219 238 270 258 245 253 263 268 269 265 260 258 256 253 249 247 249 249 244 236 233 232 228 224 228 231 228 230 237 244 252 258 265 274 279 282 285 286 288 291 291 288 286 285 285 287 288 288 288 289 290 291 292 293 290 285 282 279 274 273
72 73 75 79 86 94 100 101 98 98 101 102 101 102 105 106 107 112 111 106 104 105 108 114 135 167 177 162 218 254 278 288 283 278 274 269 267 266 262 254 249 249 250 241 225 221 223 221 217 218 225 228 233 245 252 260 270 278 286 292 295 297 298 297 294 289 284 281 281 282 283 284 284 283 283 285 291 299 299 291 285 282 273 265 267
72 71 74 80 84 88 94 97 98 97 95 98 102 101 99 99 99 99 97 93 91 92 96 100 103 107 106 93 77 42 360 339 314 297 286 276 272 273 268 256 247 245 241 228 215 207 191 191 206 209 217 234 242 254 268 275 290 301 306 307 305 304 303 299 294 290 287 283 279 278 279 281 281 280 280 282 289 296 295 289 288 282 269 263 270
80 77 79 85 89 91 94 97 99 99 96 99 105 103 96 94 94 92 90 89 91 92 93 94 93 90 89 87 80 68 52 36 21 359 329 295 277 277 278 264 252 252 240 215 197 180 157 151 165 176 165 155 135 93 17 329 329 332 328 320 314 311 307 304 303 304 302 298 293 288 284 282 281 280 280 281 285 288 289 289 291 284 270 267 273
92 89 88 89 90 91 94 96 98 99 98 100 103 103 101 100 98 93 90 90 91 90 88 87 86 83 80 79 74 66 56 48 44 37 29 22 6 347 349 349 6 5 280 176 159 145 133 127 124 123 115 97 77 63 39 17 5 355 348 340 330 322 316 313 314 314 313 312 311 306 301 296 290 287 283 280 281 282 282 283 284 277 268 264 266
99 96 93 91 90 89 91 94 96 97 100 101 101 101 103 104 103 98 94 91 88 86 84 82 81 78 73 69 66 62 57 52 50 45 41 44 45 49 48 43 44 36 23 112 130 123 111 104 99 91 87 79 68 63 56 45 34 19 4 350 337 326 319 317 319 320 321 323 324 323 323 322 318 315 308 297 288 281 277 276 273 268 264 264 269
101 100 97 94 94 93 93 96 97 99 103 104 102 100 99 99 100 99 96 92 87 83 80 78 76 73 68 64 60 59 56 53 53 49 48 52 51 54 61 59 57 58 43 52 87 97 95 86 77 75 79 80 76 73 61 41 28 18 4 349 338 330 322 319 320 321 324 326 325 325 327 329 329 329 324 309 289 274 264 262 263 264 270 281 290
97 97 95 91 90 90 91 95 99 102 104 105 104 102 99 97 96 94 93 90 85 80 75 72 71 68 64 61 58 56 54 52 53 51 48 52 52 53 61 66 66 72 68 55 62 76 80 74 73 82 87 83 76 67 48 30 23 17 8 1 352 343 334 331 331 329 328 329 328 330 336 336 333 333 331 299 225 215 197 170 103 28 358 354 1
92 90 88 84 82 83 86 91 96 101 104 104 104 104 102 100 95 91 90 87 82 77 71 67 64 59 56 55 53 52 52 49 50 50 46 48 51 51 55 63 67 68 66 62 63 71 72 68 72 86 89 81 72 56 38 31 29 26 21 18 17 15 11 10 10 8 9 13 17 22 24 23 31 51 74 92 99 96 93 87 80 78 78 78 79
93 91 86 81 78 79 81 85 89 95 98 100 101 103 103 101 98 94 92 89 86 82 77 71 68 61 55 53 51 51 53 52 52 54 52 49 49 50 50 54 57 60 62 62 62 64 66 70 82 91 87 78 66 50 41 39 36 33 31 32 34 36 38 42 46 45 46 49 50 51 52 56 65 76 84 90 91 87 85 84 83 83 84 83 81
94 92 89 85 81 78 77 78 81 86 90 92 95 97 98 97 95 93 93 92 91 90 88 83 79 73 66 63 61 59 57 57 58 61 62 58 55 58 63 66 66 67 68 70 73 75 80 85 90 88 81 72 63 56 52 50 45 43 44 46 48 50 52 57 61 60 60 63 62 63 66 70 75 79 82 84 82 78 78 80 81 78 78 79 80
99 97 94 91 87 82 80 80 81 84 87 88 89 90 90 91 91 90 90 90 89 89 88 86 83 80 76 73 72 69 64 62 63 63 62 60 61 67 74 78 79 80 81 84 88 89 89 88 85 81 77 72 68 66 64 61 58 57 57 58 60 62 62 66 70 71 72 73 74 74 76 77 77 77 77 79 79 77 76 77 75 71 70 73 73
110 108 101 96 93 90 88 87 86 87 88 89 89 89 89 89 89 89 87 86 84 82 81 80 78 78 78 78 77 73 67 63 61 61 60 61 65 70 75 79 81 83 85 88 93 94 94 91 86 82 80 76 71 68 66 65 65 65 64 65 67 69 70 72 73 73 73 73 73 74 74 74 72 73 77 80 80 79 78 75 72 70 70 67 59
104 110 111 104 97 94 91 88 88 89 90 91 92 93 93 91 89 89 88 85 83 80 77 77 75 74 75 78 79 77 70 63 60 59 61 65 68 69 71 73 77 81 84 90 95 95 92 87 83 81 80 76 71 66 62 61 64 66 67 70 71 72 73 73 71 69 68 68 68 67 68 69 69 71 76 79 79 79 78 75 72 68 65 62 54
95 98 101 101 99 97 91 85 82 83 86 89 92 96 99 100 97 95 93 89 86 82 79 76 76 76 77 79 80 80 74 66 64 66 70 73 74 72 70 69 71 75 81 87 88 85 80 76 73 73 73 71 67 63 60 59 60 60 63 68 72 73 74 74 72 70 69 69 68 67 67 67 65 67 71 74 76 76 72 67 64 59 54 53 48
93 93 93 95 97 98 94 88 83 79 77 81 84 89 99 106 105 103 101 97 92 87 82 79 79 82 84 84 85 83 73 65 73 84 85 83 80 74 69 67 67 67 73 81 81 78 76 71 67 66 69 68 65 64 65 65 63 61 62 66 69 70 71 70 70 70 69 69 69 69 68 66 64 65 67 68 69 68 63 58 54 51 50 50 44
89 95 95 93 92 91 91 89 85 81 78 78 73 68 86 111 119 115 109 105 101 95 89 88 90 92 95 94 90 82 70 68 89 104 98 89 84 78 71 67 65 63 67 74 76 75 75 72 67 66 68 68 67 68 68 67 67 68 67 67 66 67 67 68 69 68 67 67 69 70 70 68 66 63 61 58 56 54 50 47 43 41 43 47 45
91 101 99 92 86 83 83 82 77 70 67 70 71 60 39 22 192 170 144 123 113 104 96 96 99 102 105 103 96 85 76 78 96 111 107 96 89 84 78 74 69 64 65 71 73 73 74 76 75 74 74 72 70 71 71 68 67 69 68 65 64 64 66 69 70 69 69 69 69 69 67 63 59 55 49 46 44 41 37 35 32 30 32 35 38
94 107 103 95 87 75 65 65 69 62 51 50 54 53 41 16 340 270 229 209 167 128 111 108 111 112 112 109 100 91 87 89 98 110 115 107 96 87 82 80 75 69 69 73 76 75 75 76 75 76 77 75 73 73 74 72 71 70 68 67 66 64 63 63 63 63 64 64 65 63 61 58 55 51 45 40 37 34 31 27 25 25 27 27 27
85 110 111 106 91 64 43 39 58 58 39 30 30 31 30 20 5 340 292 258 224 174 137 124 122 120 119 117 108 99 97 100 104 111 118 115 103 87 79 79 80 78 77 78 78 78 78 77 76 74 72 71 70 69 69 69 68 66 65 64 62 59 55 52 51 50 50 50 50 49 46 46 45 42 36 30 26 23 19 15 14 16 19 19 19
71 124 139 131 86 51 33 28 51 41 19 15 17 13 11 15 20 26 17 315 244 197 162 146 139 133 128 125 114 103 102 109 114 116 118 116 104 79 77 85 88 88 87 84 82 81 80 79 77 75 72 70 68 66 65 65 63 62 60 58 56 55 51 48 46 45 42 41 40 36 32 30 26 21 16 14 12 13 11 6 2 3 7 11 16
71 132 152 137 80 47 29 26 54 8 359 8 14 6 1 11 35 54 61 53 281 208 184 169 161 153 141 131 120 108 104 111 120 122 120 115 101 86 91 96 97 98 98 95 90 87 86 82 79 77 74 71 68 66 64 63 61 59 58 58 57 56 52 48 45 42 39 37 33 30 28 26 19 11 7 4 2 3 5 5 2 1 3 6 8
92 128 139 113 82 54 23 9 13 360 359 11 15 13 18 40 60 68 73 73 71 175 194 185 179 174 162 147 138 128 114 116 128 131 128 121 112 105 105 107 106 106 107 105 99 95 93 90 85 81 79 78 76 74 70 67 64 62 61 60 60 56 52 48 44 41 40 37 30 25 23 21 17 11 6 3 1 360 360 2 2 360 359 359 0
122 134 117 91 107 76 4 350 346 332 334 357 15 34 60 74 72 71 78 84 84 94 169 187 185 183 178 172 176 179 173 161 153 146 140 135 127 122 119 117 115 116 117 115 110 104 99 95 91 86 84 85 86 84 78 72 69 67 61 55 51 47 44 42 40 39 42 39 29 22 19 16 12 7 2 359 360 358 354 352 353 355 355 354 356
145 148 127 114 123 106 350 353 349 326 324 61 68 75 80 76 66 64 76 91 100 109 138 177 189 184 174 176 204 211 192 184 175 162 153 148 143 137 135 131 127 126 127 125 120 113 107 103 99 95 93 92 88 84 78 69 63 58 51 44 41 40 39 35 32 32 35 33 26 21 19 16 12 7 3 359 354 351 349 345 343 349 352 348 345
192 180 169 154 158 203 321 360 357 345 133 127 112 93 76 72 69 64 71 89 106 118 134 159 181 183 178 187 262 333 186 188 184 172 161 157 154 148 144 143 140 138 136 134 129 124 118 113 107 103 102 100 91 80 71 58 47 39 33 30 28 27 25 21 17 14 12 11 10 9 8 7 4 2 1 358 350 344 344 342 339 342 349 351 352
242 236 228 208 204 239 293 334 348 351 148 158 133 76 61 64 66 52 52 81 106 125 143 161 175 179 177 186 239 81 143 187 190 180 168 162 159 155 153 154 153 148 144 142 140 137 132 126 118 110 103 97 88 72 52 36 25 17 11 9 7 6 5 3 360 356 351 349 347 345 345 348 349 347 348 350 348 343 340 342 345 351 5 19 32
254 246 233 217 220 261 308 348 35 79 103 107 91 79 74 70 64 60 75 96 103 114 138 164 178 176 158 129 159 169 161 184 191 186 177 168 163 161 160 159 156 152 149 148 150 151 148 142 138 129 108 89 73 53 36 23 10 2 1 359 357 356 353 348 346 343 340 337 336 332 329 329 333 335 336 340 346 348 348 351 1 18 33 39 43
237 211 198 202 233 285 359 87 94 96 94 89 86 85 85 85 83 82 87 93 94 99 113 137 165 167 151 140 171 192 183 183 184 181 177 172 168 166 164 162 159 157 153 149 152 158 158 151 143 133 114 90 60 38 25 14 4 3 5 5 0 355 349 345 342 339 336 334 333 327 319 318 326 337 345 350 355 359 2 11 29 44 46 45 42
173 153 175 224 309 318 142 123 107 102 102 99 96 93 92 93 92 87 84 83 85 92 104 122 151 165 163 168 186 177 167 172 174 173 172 172 171 168 165 163 163 162 158 154 158 165 169 164 153 138 119 88 50 27 14 8 7 8 8 6 1 356 351 347 342 336 332 332 331 327 320 318 327 347 4 10 6 358 4 25 44 43 36 35 34
183 292 310 327 360 92 124 121 113 111 109 104 99 96 95 96 96 93 89 84 81 84 93 113 147 167 172 191 196 156 150 163 169 170 170 170 169 168 167 167 166 165 162 162 165 169 171 173 174 160 131 85 36 14 4 1 3 3 1 360 358 354 350 345 341 336 332 331 333 333 329 327 334 358 19 17 2 348 353 17 34 32 26 21 12
257 29 84 101 105 112 116 115 112 110 106 104 102 99 97 97 96 96 96 93 88 85 87 96 121 152 187 249 238 176 163 167 169 169 169 170 169 171 174 173 170 167 165 163 164 165 166 173 180 168 128 90 31 6 358 354 353 353 355 355 353 350 347 344 341 340 339 339 340 344 345 344 354 20 30 21 7 352 344 352 356 349 344 342 343
91 102 112 112 110 111 112 111 110 108 107 108 106 103 100 100 98 97 97 97 96 95 93 92 96 98 87 39 358 173 176 176 172 170 172 175 176 175 175 173 169 169 167 163 160 161 165 172 179 152 94 51 8 360 354 348 347 350 354 354 351 348 346 345 344 345 345 347 353 0 7 17 30 37 33 22 14 7 357 350 348 339 324 318 333
111 119 122 117 111 112 113 111 110 110 112 113 110 105 103 101 98 96 94 93 95 98 98 96 95 91 84 83 80 81 147 177 180 178 176 175 172 169 168 166 165 166 165 160 158 161 168 178 191 241 311 315 333 344 343 346 351 354 355 356 354 350 347 347 346 344 343 349 3 11 16 28 39 37 28 19 16 16 12 342 334 340 338 333 338
144 136 135 129 122 119 118 115 112 111 113 113 110 105 103 101 99 97 94 90 90 92 88 84 87 92 94 103 104 95 111 147 164 167 166 162 160 160 161 160 159 159 157 157 160 164 172 184 197 218 251 280 322 332 331 340 349 353 356 360 358 352 348 347 346 342 338 344 5 13 14 20 24 22 19 15 12 13 11 351 336 340 342 337 335
193 157 149 142 135 129 126 123 119 116 115 114 111 109 107 104 102 100 96 90 88 85 77 70 70 75 84 98 110 110 120 142 153 157 158 157 157 158 159 159 159 157 155 155 160 167 174 181 184 195 244 291 316 322 329 342 350 353 358 2 355 346 343 344 344 339 334 336 357 6 5 5 5 6 11 15 14 13 13 9 4 360 346 328 322